Change the Weather History Date:

Sunday, March 31, 2013

  Actual Average Record
Temperature  
Mean Temperature 63 °F -  
Max Temperature 77 °F 73 °F 84 °F (2015)
Min Temperature 50 °F 52 °F 38 °F (2014)
Degree Days  
Heating Degree Days 2    
Growing Degree Days 13 (Base 50)    
Moisture  
Dew Point 53 °F    
Average Humidity 82    
Maximum Humidity 98    
Minimum Humidity 26    
Precipitation  
Precipitation 0.48 in - - ()
Sea Level Pressure  
Sea Level Pressure 30.00 in    
Wind  
Wind Speed 3 mph (WSW)    
Max Wind Speed 16 mph    
Max Gust Speed 25 mph    
Visibility 7 miles    
Events Fog , Rain , Thunderstorm    
Averages and records for this station are not official NWS values.
T = Trace of Precipitation, MM = Missing Value Source: NWS Daily Summary

Daily Weather History Graph

Daily Weather History Graph

Search for Another Location

Airport or City:

Trip Planner

Search our weather history database for the weather conditions in past years. The results will help you decide how hot, cold, wet, or windy it might be!

Date:

Astronomy

Mar. 31, 2013 Rise Set
Actual Time 6:49 AM CDT 7:18 PM CDT
Civil Twilight 6:25 AM CDT 7:42 PM CDT
Nautical Twilight 5:56 AM CDT 8:10 PM CDT
Astronomical Twilight 5:27 AM CDT 8:39 PM CDT
Moon No Moon Rise 9:54 AM CDT (3/31)
Length of Visible Light 13h 17m
Length of Day
12h 28m
Waning Gibbous, 77% of the Moon is Illuminated
Mar 31
Waning Gibbous
Apr 2
Last Quarter
Apr 10
New
Apr 18
First Quarter
Apr 25
Full

Hourly Weather History & Observations

Time (CDT) Temp. Dew Point Humidity Pressure Visibility Wind Dir Wind Speed Gust Speed Precip Events Conditions
12:15 AM 55.2 °F 53.1 °F 92% 30.08 in 10.0 mi Calm Calm - N/A   Unknown
12:35 AM 55.4 °F 53.6 °F 94% 30.06 in 10.0 mi South 5.8 mph - N/A   Clear
12:55 AM 58.5 °F 55.9 °F 91% 30.06 in 10.0 mi SW 5.8 mph - N/A   Clear
1:15 AM 56.3 °F 54.3 °F 93% 30.06 in 10.0 mi SW 3.5 mph - N/A   Clear
1:35 AM 55.2 °F 54.1 °F 96% 30.06 in 10.0 mi Calm Calm - N/A   Unknown
1:55 AM 55.0 °F 53.8 °F 96% 30.05 in 10.0 mi Calm Calm - N/A   Unknown
2:15 AM 53.8 °F 52.5 °F 95% 30.05 in 10.0 mi Calm Calm - N/A   Unknown
2:35 AM 54.5 °F 53.6 °F 97% 30.05 in 7.0 mi Calm Calm - N/A   Unknown
2:55 AM 52.7 °F 51.6 °F 96% 30.04 in 10.0 mi Calm Calm - N/A   Unknown
3:15 AM 52.9 °F 51.8 °F 96% 30.04 in 4.0 mi Calm Calm - N/A   Mist
3:35 AM 52.3 °F 51.4 °F 97% 30.03 in 0.5 mi Calm Calm - N/A Fog Fog
3:55 AM 50.9 °F 50.0 °F 97% 30.02 in 0.2 mi Calm Calm - N/A Fog Fog
4:15 AM 51.4 °F 50.5 °F 97% 30.02 in 0.2 mi Calm Calm - N/A Fog Fog
4:35 AM 50.5 °F 49.6 °F 97% 30.02 in 0.2 mi Calm Calm - N/A Fog Fog
4:55 AM 50.5 °F 49.6 °F 97% 30.01 in 0.2 mi Calm Calm - N/A Fog Fog
5:15 AM 50.7 °F 49.8 °F 97% 30.01 in 0.2 mi Calm Calm - N/A Fog Fog
5:35 AM 50.9 °F 50.0 °F 97% 30.02 in 0.2 mi Calm Calm - N/A Fog Fog
6:15 AM 52.3 °F 51.3 °F 96% 30.03 in 0.2 mi Calm Calm - N/A Fog Fog
6:35 AM 52.5 °F 51.4 °F 96% 30.03 in 0.2 mi Calm Calm - N/A Fog Fog
6:55 AM 52.7 °F 51.8 °F 97% 30.03 in 0.8 mi Calm Calm - N/A   Overcast
7:15 AM 53.8 °F 52.7 °F 96% 30.03 in 0.2 mi Calm Calm - N/A Fog Fog
7:35 AM 54.7 °F 53.6 °F 96% 30.04 in 0.2 mi Calm Calm - N/A Fog Fog
7:55 AM 55.9 °F 54.7 °F 96% 30.03 in 0.2 mi Calm Calm - N/A Fog Fog
8:15 AM 57.4 °F 56.1 °F 96% 30.03 in 0.2 mi Calm Calm - N/A Fog Fog
8:35 AM 59.0 °F 57.6 °F 95% 30.03 in 0.2 mi Calm Calm - N/A Fog Fog
8:55 AM 60.6 °F 59.0 °F 94% 30.02 in 0.2 mi South 3.5 mph - N/A Fog Fog
9:15 AM 61.7 °F 60.3 °F 95% 30.02 in 0.2 mi Calm Calm - N/A Fog Fog
9:35 AM 62.2 °F 60.8 °F 95% 30.02 in 0.2 mi SSW 3.5 mph - N/A Fog Fog
9:55 AM 63.1 °F 61.7 °F 95% 30.02 in 1.0 mi SW 5.8 mph - N/A   Overcast
10:15 AM 63.7 °F 62.2 °F 95% 30.02 in 5.0 mi SW 5.8 mph - N/A   Overcast
10:35 AM 64.6 °F 63.7 °F 97% 30.03 in 10.0 mi SW 8.1 mph - N/A   Overcast
10:55 AM 64.6 °F 64.0 °F 98% 30.03 in 10.0 mi SW 5.8 mph - N/A   Overcast
11:15 AM 65.3 °F 64.4 °F 97% 30.03 in 10.0 mi North - - N/A   Overcast
11:35 AM 69.1 °F 50.0 °F 51% 30.02 in 10.0 mi WSW 4.6 mph - N/A   Overcast
11:55 AM 72.5 °F 46.4 °F 39% 30.00 in 10.0 mi SSW 8.1 mph - N/A   Mostly Cloudy
12:15 PM 71.6 °F 46.4 °F 41% 30.00 in 10.0 mi WSW 8.1 mph - N/A   Scattered Clouds
12:35 PM 73.0 °F 45.9 °F 38% 29.99 in 10.0 mi West 8.1 mph - N/A   Mostly Cloudy
12:55 PM 73.8 °F 45.0 °F 36% 29.99 in 10.0 mi SSW 13.8 mph - N/A   Overcast
1:15 PM 74.3 °F 44.4 °F 34% 29.98 in 10.0 mi South 12.7 mph 16.1 mph N/A   Overcast
1:35 PM 74.8 °F 44.2 °F 33% 29.97 in 10.0 mi SSW 9.2 mph 17.3 mph N/A   Scattered Clouds
1:55 PM 75.6 °F 42.6 °F 31% 29.97 in 10.0 mi SSW 10.4 mph 17.3 mph N/A   Scattered Clouds
2:15 PM 75.6 °F 41.7 °F 30% 29.97 in 10.0 mi SW 10.4 mph - N/A   Mostly Cloudy
2:35 PM 75.4 °F 40.6 °F 29% 29.96 in 10.0 mi WSW 9.2 mph - N/A   Overcast
2:55 PM 76.1 °F 39.0 °F 26% 29.96 in 10.0 mi WSW 6.9 mph - N/A   Mostly Cloudy
3:15 PM 76.1 °F 39.7 °F 27% 29.94 in 10.0 mi West 6.9 mph - N/A   Overcast
3:35 PM 75.9 °F 40.3 °F 28% 29.94 in 10.0 mi West 5.8 mph - N/A   Overcast
3:55 PM 74.5 °F 43.5 °F 33% 29.93 in 10.0 mi WNW 6.9 mph - N/A Rain , Thunderstorm Light Thunderstorms and Rain
4:15 PM 66.7 °F 41.7 °F 40% 29.94 in 1.0 mi Calm Calm - 0.33 in Rain , Thunderstorm Heavy Thunderstorms and Rain
4:35 PM 63.9 °F 47.7 °F 56% 29.95 in 10.0 mi Calm Calm - 0.35 in Rain , Thunderstorm Light Thunderstorms and Rain
5:15 PM 59.0 °F 57.9 °F 96% 30.00 in 7.0 mi North 16.1 mph 25.3 mph 0.04 in Rain , Thunderstorm Thunderstorms and Rain
5:35 PM 58.5 °F 57.6 °F 97% 29.98 in 7.0 mi North 6.9 mph - 0.11 in Rain , Thunderstorm Light Thunderstorms and Rain
5:55 PM 58.5 °F 57.6 °F 97% 29.98 in 10.0 mi North 6.9 mph - 0.12 in Rain , Thunderstorm Light Thunderstorms and Rain
6:15 PM 58.6 °F 57.7 °F 97% 29.96 in 10.0 mi Calm Calm - N/A Rain , Thunderstorm Light Thunderstorms and Rain
6:35 PM 59.2 °F 58.3 °F 97% 29.92 in 10.0 mi SSE 8.1 mph - 0.01 in Thunderstorm Unknown
6:55 PM 59.2 °F 58.1 °F 96% 29.87 in 10.0 mi SE 10.4 mph - 0.01 in Rain Rain
7:15 PM 59.4 °F 57.6 °F 94% 29.89 in 10.0 mi SSW 4.6 mph - N/A   Scattered Clouds
7:35 PM 59.0 °F 57.4 °F 94% 29.90 in 10.0 mi SSW 4.6 mph - N/A   Scattered Clouds
7:55 PM 58.3 °F 57.2 °F 96% 29.90 in 10.0 mi WSW 5.8 mph - N/A   Clear
8:15 PM 57.4 °F 56.3 °F 96% 29.93 in 10.0 mi North 3.5 mph - N/A   Clear
8:35 PM 57.2 °F 56.3 °F 97% 29.94 in 10.0 mi Calm Calm - N/A   Clear
8:55 PM 56.7 °F 55.8 °F 97% 29.95 in 10.0 mi Calm Calm - N/A   Clear
9:15 PM 56.7 °F 55.9 °F 97% 29.95 in 10.0 mi SW 4.6 mph - N/A   Mostly Cloudy
9:35 PM 57.0 °F 56.3 °F 97% 29.96 in 10.0 mi WNW 4.6 mph - N/A   Mostly Cloudy
9:55 PM 57.2 °F 56.5 °F 97% 29.98 in 10.0 mi WNW 3.5 mph - N/A   Overcast
10:15 PM 56.7 °F 55.9 °F 97% 29.99 in 10.0 mi NW 4.6 mph - N/A   Scattered Clouds
10:35 PM 56.5 °F 55.8 °F 97% 29.99 in 10.0 mi North 4.6 mph - N/A   Scattered Clouds
10:55 PM 56.5 °F 55.8 °F 97% 29.99 in 10.0 mi North 3.5 mph - N/A   Scattered Clouds
11:15 PM 57.0 °F 56.3 °F 97% 30.00 in 10.0 mi Calm Calm - N/A   Overcast
11:35 PM 57.2 °F 56.3 °F 97% 29.99 in 10.0 mi Calm Calm - N/A   Overcast
11:55 PM 57.2 °F 56.5 °F 97% 29.99 in 10.0 mi Calm Calm - N/A   Overcast